DIAMOND BLUE

Last updated on Sat Apr 13 2024 01:03:33 GMT+0100 (British Summer Time)

1 42786U 17036X 24103.58179279 .01561444 19507-2 13582-2 0 9992 2 42786 97.0934 143.8090 0007067 211.3734 148.7132 16.13685014379647
UTC large
Height (km)
Speed (km/s)
/
Latitude / Longitude
Inclination (degrees)
Orbital Period (minutes)
Azimuth
Elevation
Range (km)
Doppler Factor

Next 0 passes for location: London (51.5072 / 0.1276)

Sorry there are no passes over London.